Warsaw, Poland

7:58 AM CEST on August 21, 2017 (GMT +0200)
Okecie

Weather History for EPWA - June, 2013

Change the Weather History Date:

Monday, June 17, 2013

  Actual Average Record
Temperature  
Mean Temperature 64 °F -  
Max Temperature 75 °F 73 °F 86 °F (2016)
Min Temperature 53 °F 54 °F 42 °F (2000)
Degree Days  
Heating Degree Days 1    
Growing Degree Days 14 (Base 50)    
Moisture  
Dew Point 50 °F    
Average Humidity 55    
Maximum Humidity 94    
Minimum Humidity 23    
Precipitation  
Precipitation 0.00 in 0.09 in - ()
Sea Level Pressure  
Sea Level Pressure 30.06 in    
Wind  
Wind Speed 4 mph ()    
Max Wind Speed 10 mph    
Max Gust Speed -    
Visibility 15.0 miles    
Events      
Averages and records for this station are not official NWS values.
T = Trace of Precipitation, MM = Missing Value Source: Averaged Metar Reports

Daily Weather History Graph

Daily Weather History Graph

Search for Another Location

Airport or City:

Trip Planner

Search our weather history database for the weather conditions in past years. The results will help you decide how hot, cold, wet, or windy it might be!

Date:

Astronomy

Jun. 17, 2013 Rise Set
Actual Time 4:14 AM CEST 8:59 PM CEST
Civil Twilight 3:25 AM CEST 9:49 PM CEST
Nautical Twilight 2:05 AM CEST 11:08 PM CEST
Astronomical Twilight Sun does not set Sun does not set
Moon 1:36 PM CEST (6/17) 12:27 AM CEST (6/17)
Length of Visible Light 18h 23m
Length of Day
16h 45m
First Quarter, 57% of the Moon is Illuminated
Jun 17
First Quarter
Jun 23
Full
Jun 30
Last Quarter
Jul 8
New
Jul 16
First Quarter

Hourly Weather History & Observations

Time (CEST) Temp. Dew Point Humidity Pressure Visibility Wind Dir Wind Speed Gust Speed Precip Events Conditions
12:00 AM 64.4 °F 53.6 °F 68% 30.01 in - West 5.8 mph - N/A   Clear
12:30 AM 62.6 °F 53.6 °F 72% 30.01 in - West 6.9 mph - N/A   Clear
1:00 AM 60.8 °F 53.6 °F 77% 30.01 in - West 4.6 mph - N/A   Clear
1:30 AM 60.8 °F 51.8 °F 72% 30.01 in - Variable 2.3 mph - N/A   Clear
2:00 AM 59 °F 50 °F 65% 30.03 in 12 mi West 4.5 mph - -   Scattered Clouds
2:00 AM 59.0 °F 51.8 °F 77% 30.01 in - Variable 1.2 mph - N/A   Clear
2:30 AM 59.0 °F 51.8 °F 77% 30.01 in - Variable 1.2 mph - N/A   Clear
3:00 AM 57.2 °F 51.8 °F 82% 30.04 in - Variable 2.3 mph - N/A   Clear
3:30 AM 55.4 °F 51.8 °F 88% 30.04 in - SSE 2.3 mph - N/A   Clear
4:00 AM 55.4 °F 50.0 °F 82% 30.04 in - South 2.3 mph - N/A   Clear
4:30 AM 53.6 °F 51.8 °F 94% 30.04 in - Calm Calm - N/A   Clear
5:00 AM 55 °F 51 °F 81% 30.06 in 19 mi Calm Calm - -   Scattered Clouds
5:00 AM 55.4 °F 51.8 °F 88% 30.04 in - Calm Calm - N/A   Clear
5:30 AM 57.2 °F 51.8 °F 82% 30.04 in - Variable 1.2 mph - N/A   Clear
6:00 AM 60.8 °F 51.8 °F 72% 30.04 in - West 4.6 mph - N/A   Clear
6:30 AM 60.8 °F 53.6 °F 77% 30.04 in - Variable 3.5 mph - N/A   Clear
7:00 AM 60.8 °F 53.6 °F 77% 30.06 in - Variable 1.2 mph - N/A   Clear
7:30 AM 60.8 °F 53.6 °F 77% 30.06 in - Variable 3.5 mph - N/A   Clear
8:00 AM 63 °F 53 °F 61% 30.08 in 19 mi West 4.5 mph - -   Scattered Clouds
8:00 AM 62.6 °F 53.6 °F 72% 30.06 in - Variable 3.5 mph - N/A   Clear
8:30 AM 64.4 °F 53.6 °F 68% 30.06 in - WNW 5.8 mph - N/A   Clear
9:00 AM 66.2 °F 53.6 °F 64% 30.09 in - NW 8.1 mph - N/A   Clear
9:30 AM 68.0 °F 51.8 °F 56% 30.09 in - NW 8.1 mph - N/A   Clear
10:00 AM 69.8 °F 50.0 °F 49% 30.09 in 6.2 mi WNW 5.8 mph - N/A   Partly Cloudy
10:30 AM 69.8 °F 48.2 °F 46% 30.09 in 6.2 mi WNW 6.9 mph - N/A   Partly Cloudy
11:00 AM 71 °F 49 °F 34% 30.10 in 19 mi NW 8.9 mph - -   Scattered Clouds
11:00 AM 71.6 °F 46.4 °F 41% 30.09 in - NW 10.4 mph - N/A   Clear
11:30 AM 71.6 °F 46.4 °F 41% 30.09 in - NW 10.4 mph - N/A   Clear
12:00 PM 71.6 °F 50.0 °F 46% 30.09 in - WNW 6.9 mph - N/A   Clear
12:30 PM 71.6 °F 48.2 °F 43% 30.09 in - WNW 5.8 mph - N/A   Clear
1:00 PM 73.4 °F 48.2 °F 41% 30.09 in - WNW 9.2 mph - N/A   Clear
1:30 PM 73.4 °F 48.2 °F 41% 30.09 in - NW 6.9 mph - N/A   Clear
2:00 PM 74 °F 44 °F 24% 30.09 in 19 mi WSW 6.7 mph - -   Scattered Clouds
2:00 PM 73.4 °F 46.4 °F 38% 30.09 in - NW 8.1 mph - N/A   Clear
2:30 PM 75.2 °F 46.4 °F 36% 30.09 in - NW 9.2 mph - N/A   Clear
3:00 PM 75.2 °F 44.6 °F 34% 30.09 in - Variable 10.4 mph - N/A   Clear
3:30 PM 75.2 °F 46.4 °F 36% 30.09 in - West 9.2 mph - N/A   Clear
4:00 PM 75.2 °F 46.4 °F 36% 30.09 in - West 6.9 mph - N/A   Clear
4:30 PM 75.2 °F 50.0 °F 41% 30.06 in - West 8.1 mph - N/A   Clear
5:00 PM 75 °F 45 °F 23% 30.07 in 19 mi West 6.7 mph - -   Scattered Clouds
5:00 PM 75.2 °F 48.2 °F 38% 30.06 in - West 5.8 mph - N/A   Clear
5:30 PM 75.2 °F 48.2 °F 38% 30.06 in - WSW 8.1 mph - N/A   Clear
6:00 PM 75.2 °F 48.2 °F 38% 30.06 in - WSW 5.8 mph - N/A   Clear
6:30 PM 75.2 °F 48.2 °F 38% 30.06 in - West 6.9 mph - N/A   Clear
7:00 PM 73.4 °F 48.2 °F 41% 30.06 in - WNW 5.8 mph - N/A   Clear
7:30 PM 71.6 °F 50.0 °F 46% 30.06 in - WSW 5.8 mph - N/A   Clear
8:00 PM 71 °F 47 °F 31% 30.07 in 19 mi NW 6.7 mph - -   Scattered Clouds
8:00 PM 69.8 °F 50.0 °F 49% 30.06 in - North 4.6 mph - N/A   Clear
8:30 PM 68.0 °F 48.2 °F 49% 30.06 in - North 4.6 mph - N/A   Clear
9:00 PM 66.2 °F 48.2 °F 52% 30.09 in - North 5.8 mph - N/A   Clear
9:30 PM 66.2 °F 48.2 °F 52% 30.09 in - ENE 3.5 mph - N/A   Clear
10:00 PM 66.2 °F 48.2 °F 52% 30.09 in - Variable 2.3 mph - N/A   Clear
10:30 PM 66.2 °F 46.4 °F 49% 30.09 in - Variable 2.3 mph - N/A   Clear
11:00 PM 66 °F 47 °F 38% 30.09 in 12 mi East 2.2 mph - -   Clear
11:00 PM 66.2 °F 48.2 °F 52% 30.09 in - Variable 2.3 mph - N/A   Clear
11:30 PM 64.4 °F 48.2 °F 56% 30.09 in - East 3.5 mph - N/A   Clear